FENGYUN 1C DEB, 30067

Orbit data source: Space-Track

FENGYUN 1C DEB, 30067 is space debris in SSO originally from a launch on Mon, 10 May 1999 UTC launched from the Taiyaun Space Center, China (TSC). Fengyun 1C debris stems from the Chinese weather satellite Fengyun-1C, which was intentionally destroyed by a Chinese anti-satellite missile in 2007. This event dramatically increased the amount of space debris, with thousands of trackable fragments posing hazards to satellites and human spaceflight. The Fengyun 1C debris cloud has become a focal point in discussions about space sustainability and the need for international regulations to prevent the creation of new debris.

Loading next visibility...
Identifier
30067, 1999-025PU
Orbit
SSO
Country
Flag of CNCN / PRC
Related business
Manufacturer
Unknown
Mission
Spacecraft
Bus & Motor
Unknown
Mass
Unknown
Launch date (UTC)
1999-05-10 (27 years ago)
Launch vehicle
Unknown
Launch site
Taiyaun Space Center, China (TSC)
Object type
Payload
Rocket body
Debris
Shape & HBR
Unknown shape, 0.1 m
Radar Cross Section
Medium (>0.1 m² and <1 m²)

Expand to show TLE details & history
Last TLE update: 18 hours ago

TLE from 18 hours ago
0 FENGYUN 1C DEB
1 30067U 99025PU  26145.46833874  .00000668  00000-0  18426-3 0  9996
2 30067  98.7496  41.3879 0149026 247.7206 296.3727 14.44160785 15588
Epoch: 2026-05-25T11:14Z
TLE epoch observation values (Epoch: 2026-05-25T11:14:24.467Z)
Latitude
-2.65547°
Longitude
169.32347°
Altitude
702.235 km
Speed
7.529 km/s
True Right ascension
14h 43m 55s
True Declination
-2° 38' 22"
Sunlit
Object was in full shadow at epoch
Visualization orbit readout
Latitude
Unknown
Longitude
Unknown
Altitude
Unknown
Speed
Unknown
Apparent Right ascension
Unknown
Apparent Declination
Unknown
Sunlit
N/A
Visualization observer readout
Local Sidereal Time
13:59:34
Azimuth
Unknown
Elevation
Unknown
Doppler factor
Unknown
Orbital elements
Apogee altitude
848.019 km
Perigee altitude
635.804 km
Semi-major axis
7,120.049 km
Eccentricity
0.0149
Inclination
98.7496°
RAAN
41.3879°
Arg. of periapsis
247.7206°
True anomaly
294.83015°
Mean anomaly
296.3727°
Eccentric anomaly
295.60268°
Mean motion
3.61259 °/min
Orbital period
99.65 mins
BSTAR
0.00018426
Loading maneuver chart data...
Computing Atmospheric mass density...

Documentation

Showing up to 5 results
|